Location: Baili�vre
(50.0696°N, 4.2409°E)
Time: 15:15:58
(UTC+00:00)

Cosmos 1842 - Pass Details

Date: 08 August 2020
Orbit: 520 x 538 km, 82.5° (Epoch: 18 September)

Event Time Altitude Azimuth Distance (km) Brightness Sun altitude
Rises 23:12:14 0° 355° (N) 2,702 8.3 -23.7°
Reaches altitude 10° 23:14:31 10° 4° (N) 1,803 7.0 -23.7°
Enters shadow 23:18:05 39° 68° (ENE) 822 4.2 -23.8°
